Regional Weather Roundup
Issued by NWS

Home | Current Version | Previous Version | Text Only | Print | Product List | Glossary On
Versions: 1 2 3 4 5 6 7 8 9 10 11 12 13 14 15 16 17 18 19 20 21 22 23 24 25 26 27 28 29 30 31 32 33 34 35 36 37 38 39 40 41 42 43 44 45 46 47 48 49 50
000
ASUS43 KDMX 220106
RWRIA

WEATHER ROUNDUP FOR IOWA
NATIONAL WEATHER SERVICE DES MOINES IA
800 PM CDT WED JUN 21 2017

NOTE: "FAIR" INDICATES FEW OR NO CLOUDS BELOW 12,000 FEET WITH NO
SIGNIFICANT WEATHER AND/OR OBSTRUCTIONS TO VISIBILITY.

* - THESE STATIONS ARE NOT NWS STATIONS...THUS NOT UNDER NWS
QUALITY CONTROL.  THEY ALSO DO NOT REPORT WEATHER SUCH
AS PRECIPITATION OR FOG.

IAZ001>003-012>014-020>022-031>034-043>046-220200-
   NORTHWEST IOWA

CITY           SKY/WX    TMP DP  RH WIND       PRES   REMARKS
CARROLL *      CLEAR     88  64  45 S15       29.70S HX  89
CHEROKEE *     CLEAR     85  74  68 E7        29.66F HX  93
DENISON *      CLEAR     90  66  45 S14       29.69S HX  92
LE MARS *      PTCLDY    88  73  62 NE7       29.65S HX  96
ORANGE CITY *  PTCLDY    86  72  62 E5        29.67S HX  92
SHELDON *      PTCLDY    84  73  70 E6        29.67F HX  91
SIOUX CITY     CLEAR     92  72  51 S7        29.61F HX  99
SPENCER        MOCLDY    81  73  76 E13       29.70S HX  86
STORM LAKE *   MOCLDY    84  72  65 S8        29.68F HX  89
$$

IAZ055>058-069>071-079>083-090>094-220200-
   SOUTHWEST IOWA

CITY           SKY/WX    TMP DP  RH WIND       PRES   REMARKS
ATLANTIC *     CLEAR     86  63  45 S16       29.71S HX  87
AUDUBON *      CLEAR     86  61  42 S15G23    29.73S HX  86
CLARINDA *     CLEAR     86  64  48 S13G20    29.76R HX  87
COUNCIL BLFS * CLEAR     88  63  42 S14       29.69S HX  88
CRESTON *      CLEAR     86  61  42 MISG      29.77S HX  86
HARLAN  *      CLEAR     88  63  42 S16G24    29.72S HX  88
LAMONI         CLEAR     86  63  45 S12       29.78R HX  87
RED OAK *      CLEAR     86  61  42 S16G22    29.72S HX  86
SHENANDOAH *   CLEAR     86  63  45 S14       29.73R HX  87
$$

IAZ047>049-059>061-072>074-084-220200-
   CENTRAL IOWA

CITY           SKY/WX    TMP DP  RH WIND       PRES   REMARKS
AMES           CLEAR     85  67  54 S12       29.74S HX  87
ANKENY *       CLEAR     86  64  48 S12       29.76S HX  87
BOONE *        CLEAR     84  66  54 S10       29.73S HX  86
CHARITON *     CLEAR     86  64  48 S10G17    29.77F HX  87
DES MOINES     PTCLDY    87  64  46 S12       29.75R HX  88
GRINNELL*      CLEAR     82  72  71 SE10      29.79S HX  86
KNOXVILLE *    CLEAR     84  68  58 S9        29.76S HX  87
MARSHALLTOWN   CLEAR     78  72  81 SE14      29.76S HX  80
NEWTON *       CLEAR     84  68  58 S10       29.78R HX  87
PELLA *        CLEAR     85  68  55 S7        29.78S HX  89
PERRY *          N/A     86  63  45 S13       29.73S HX  87
$$

IAZ004>006-015-016-023>025-035-036-220200-
   NORTH CENTRAL IOWA

CITY           SKY/WX    TMP DP  RH WIND       PRES   REMARKS
ALGONA *       PTCLDY    79  73  83 SE9       29.72S HX  82
CLARION *        N/A     79  75  89 SE15G21   29.72F HX  82
ESTHERVILLE    MOCLDY    75  70  84 E10       29.72S
FORT DODGE *   CLEAR     82  70  65 SE7       29.71F HX  86
MASON CITY     MOCLDY    74  66  76 SE10      29.77F
FOREST CITY *    N/A     75  63  64 SE10      29.75F
WEBSTER CITY * CLEAR     82  73  74 SE9       29.70F HX  88
IOWA FALLS *     N/A     78  71  78 SE14      29.76F HX  80
$$

IAZ007>011-017>019-026>030-037>042-050>054-066-220200-
   NORTHEAST IOWA

CITY           SKY/WX    TMP DP  RH WIND       PRES   REMARKS
CEDAR RAPIDS   CLOUDY    72  70  93 SE12      29.79F
CHARLES CITY * CLOUDY    72  66  83 SE10      29.79F
CLINTON *      CLOUDY    71  67  87 S8        29.85F
DECORAH *      MOCLDY    72  61  68 SE7G14    29.80F
DUBUQUE        CLOUDY    71  63  75 SE9G22    29.84F
MONTICELLO *   CLOUDY    70  66  88 SE9       29.80F
OELWEIN *      PTCLDY    72  66  83 SE10G17   29.81S
WATERLOO       PTCLDY    75  68  78 S10       29.76F
$$

IAZ064-065-067-068-078-220200-
   EAST CENTRAL IOWA

CITY           SKY/WX    TMP DP  RH WIND       PRES   REMARKS
DAVENPORT      LGT RAIN  73  67  81 S10       29.83F
IOWA CITY      CLOUDY    73  69  87 E8        29.82F
MT. PLEASANT * CLOUDY    80  71  71 E10       29.84F HX  84
MUSCATINE *    MOCLDY    73  70  88 SE9       29.84F
QUAD CITIES    LGT RAIN  75  67  76 S14       29.84F
$$

IAZ062-063-075>077-085>089-095>099-220200-
   SOUTHEAST IOWA

CITY           SKY/WX    TMP DP  RH WIND       PRES   REMARKS
BURLINGTON     CLOUDY    83  74  74 E6        29.86R HX  89
FAIRFIELD *    CLOUDY    86  68  54 S10       29.81F HX  89
FORT MADISON * MOCLDY    88  70  55 S3        29.86R HX  92
KEOKUK *       CLEAR     86  68  54 S7G14     29.83R HX  89
OSKALOOSA *      N/A     83  67  59 S8        29.80F HX  85
CENTERVILLE *    N/A     84  66  54 S12G17    29.82R HX  86
OTTUMWA        MOCLDY    85  67  54 S9        29.79S HX  87
WASHINGTON *   CLOUDY    77  73  88 E12       29.83F
$$

ABBREVIATIONS USED IN REMARKS
   TC - TEMPERATURES IN CELSIUS
  WCI - WIND CHILL INDEX
   HX - HEAT INDEX
  VSB - VISIBILITY
$$





USA.gov is the U.S. government's official web portal to all federal, state and local government web resources and services.